Biarritz, France

6:06 AM CEST on June 27, 2017 (GMT +0200)
Bayonne-Anglet

Weather History for LFBZ - November, 2012

Change the Weather History Date:

Friday, November 16, 2012

  Actual Average Record
Temperature  
Mean Temperature 62 °F -  
Max Temperature 71 °F 54 °F 71 °F (1997)
Min Temperature 53 °F 42 °F 26 °F (2007)
Degree Days  
Heating Degree Days 3    
Growing Degree Days 12 (Base 50)    
Moisture  
Dew Point 50 °F    
Average Humidity 63    
Maximum Humidity 88    
Minimum Humidity 46    
Precipitation  
Precipitation 0.00 in - - ()
Sea Level Pressure  
Sea Level Pressure 29.95 in    
Wind  
Wind Speed 4 mph ()    
Max Wind Speed 8 mph    
Max Gust Speed -    
Visibility 6.2 miles    
Events      
Averages and records for this station are not official NWS values.
T = Trace of Precipitation, MM = Missing Value Source: Averaged Metar Reports

Daily Weather History Graph

Daily Weather History Graph

Search for Another Location

Airport or City:

Trip Planner

Search our weather history database for the weather conditions in past years. The results will help you decide how hot, cold, wet, or windy it might be!

Date:

Astronomy

Nov. 16, 2012 Rise Set
Actual Time 8:01 AM CET 5:40 PM CET
Civil Twilight 7:30 AM CET 6:11 PM CET
Nautical Twilight 6:55 AM CET 6:45 PM CET
Astronomical Twilight 6:21 AM CET 7:19 PM CET
Moon 10:44 AM CET (11/16) 8:21 PM CET (11/16)
Length of Visible Light 10h 40m
Length of Day
9h 38m
Waxing Crescent, 9% of the Moon is Illuminated
Nov 16
Waxing Crescent
Nov 20
First Quarter
Nov 28
Full
Dec 6
Last Quarter
Dec 13
New

Hourly Weather History & Observations

Time (CET) Temp. Dew Point Humidity Pressure Visibility Wind Dir Wind Speed Gust Speed Precip Events Conditions
12:00 AM 53.6 °F 50.0 °F 88% 30.04 in 6.2 mi SSE 3.5 mph - N/A   Unknown
12:30 AM 55.4 °F 50.0 °F 82% 30.04 in 6.2 mi South 3.5 mph - N/A   Unknown
1:00 AM 55.4 °F 50.0 °F 82% 30.01 in 6.2 mi SSE 4.6 mph - N/A   Unknown
1:30 AM 55.4 °F 50.0 °F 82% 30.01 in 6.2 mi South 3.5 mph - N/A   Unknown
2:00 AM 55.4 °F 48.2 °F 77% 30.01 in 6.2 mi Variable 3.5 mph - N/A   Unknown
2:30 AM 59.0 °F 50.0 °F 72% 30.01 in 6.2 mi South 4.6 mph - N/A   Unknown
3:00 AM 60.8 °F 50.0 °F 68% 30.01 in 6.2 mi South 4.6 mph - N/A   Unknown
3:30 AM 60.8 °F 50.0 °F 68% 30.01 in 6.2 mi Variable 4.6 mph - N/A   Unknown
4:00 AM 60.8 °F 50.0 °F 68% 29.98 in 6.2 mi South 6.9 mph - N/A   Unknown
4:30 AM 59.0 °F 50.0 °F 72% 29.98 in 6.2 mi South 4.6 mph - N/A   Unknown
5:00 AM 60.8 °F 50.0 °F 68% 29.98 in 6.2 mi Variable 6.9 mph - N/A   Unknown
5:30 AM 60.8 °F 48.2 °F 63% 29.98 in 6.2 mi Variable 5.8 mph - N/A   Unknown
6:00 AM 60.8 °F 48.2 °F 63% 29.98 in - SSW 4.6 mph - N/A   Clear
6:30 AM 59.0 °F 48.2 °F 67% 29.98 in - South 5.8 mph - N/A   Clear
7:00 AM 60.8 °F 48.2 °F 63% 29.98 in - South 5.8 mph - N/A   Clear
7:30 AM 59.0 °F 50.0 °F 72% 29.98 in - SSE 8.1 mph - N/A   Clear
8:00 AM 59.0 °F 48.2 °F 67% 29.98 in - South 4.6 mph - N/A   Clear
8:46 AM 60.8 °F 48.2 °F 63% 29.98 in - SSE 6.9 mph - N/A   Clear
9:05 AM 60.8 °F 50.0 °F 68% 29.98 in - SSE 4.6 mph - N/A   Clear
9:30 AM 62.6 °F 50.0 °F 63% 29.98 in - South 5.8 mph - N/A   Clear
10:00 AM 64.4 °F 50.0 °F 59% 29.98 in - Variable 3.5 mph - N/A   Clear
10:30 AM 66.2 °F 51.8 °F 60% 29.98 in - SSE 5.8 mph - N/A   Clear
11:00 AM 68.0 °F 51.8 °F 56% 29.98 in - Variable 4.6 mph - N/A   Clear
11:30 AM 68.0 °F 51.8 °F 56% 29.98 in - South 5.8 mph - N/A   Clear
12:00 PM 69.8 °F 51.8 °F 53% 29.98 in - SSW 5.8 mph - N/A   Clear
12:30 PM 71.6 °F 51.8 °F 50% 29.95 in - Variable 4.6 mph - N/A   Clear
1:00 PM 71.6 °F 50.0 °F 46% 29.95 in - Variable 6.9 mph - N/A   Clear
1:30 PM 71.6 °F 51.8 °F 50% 29.95 in - Variable 5.8 mph - N/A   Clear
2:00 PM 71.6 °F 51.8 °F 50% 29.92 in - Variable 4.6 mph - N/A   Clear
2:30 PM 71.6 °F 50.0 °F 46% 29.92 in - South 6.9 mph - N/A   Clear
3:00 PM 71.6 °F 51.8 °F 50% 29.89 in - South 6.9 mph - N/A   Clear
3:30 PM 71.6 °F 51.8 °F 50% 29.89 in - South 4.6 mph - N/A   Clear
4:00 PM 71.6 °F 50.0 °F 46% 29.89 in - Variable 2.3 mph - N/A   Clear
4:30 PM 71.6 °F 51.8 °F 50% 29.89 in - Variable 2.3 mph - N/A   Clear
5:00 PM 69.8 °F 50.0 °F 49% 29.89 in - Variable 1.2 mph - N/A   Clear
5:30 PM 68.0 °F 51.8 °F 56% 29.89 in - Variable 2.3 mph - N/A   Clear
6:00 PM 64.4 °F 51.8 °F 64% 29.89 in - Variable 3.5 mph - N/A   Clear
6:30 PM 64.4 °F 50.0 °F 59% 29.89 in - South 3.5 mph - N/A   Clear
7:00 PM 62.6 °F 48.2 °F 59% 29.89 in - Variable 3.5 mph - N/A   Clear
7:30 PM 60.8 °F 46.4 °F 59% 29.89 in - ESE 4.6 mph - N/A   Clear
8:00 PM 59.0 °F 50.0 °F 72% 29.89 in - Variable 3.5 mph - N/A   Clear
8:30 PM 60.8 °F 48.2 °F 63% 29.89 in 6.2 mi ESE 5.8 mph - N/A   Unknown
9:00 PM 57.2 °F 48.2 °F 72% 29.89 in 6.2 mi ESE 5.8 mph - N/A   Unknown
9:30 PM 57.2 °F 48.2 °F 72% 29.89 in 6.2 mi ESE 5.8 mph - N/A   Unknown
10:00 PM 59.0 °F 48.2 °F 67% 29.89 in 6.2 mi Variable 3.5 mph - N/A   Unknown
10:30 PM 59.0 °F 46.4 °F 63% 29.86 in 6.2 mi Variable 2.3 mph - N/A   Unknown
11:00 PM 55.4 °F 48.2 °F 77% 29.86 in 6.2 mi ENE 3.5 mph - N/A   Unknown
11:30 PM 55.4 °F 48.2 °F 77% 29.86 in 6.2 mi East 4.6 mph - N/A   Unknown